Miscellaneous Local Product
Issued by NWS Hastings, NE

Home | Current Version | Previous Version | Text Only | Print | Product List | Glossary Off
Versions: 1 2 3 4 5 6 7 8 9 10 11 12 13 14 15 16 17 18 19 20 21 22 23 24 25 26 27 28 29 30 31 32 33 34 35 36 37 38 39 40 41 42 43 44 45 46 47 48 49 50

000
AXUS43 KGID 081302
MISGRI

GID CWA HOURLY WEATHER ROUNDUP
NATIONAL WEATHER SERVICE HASTINGS NE
700 AM CST THU DEC 08 2016

NOTE: "FAIR" INDICATES FEW OR NO CLOUDS BELOW 12,000 FEET WITH NO
SIGNIFICANT WEATHER AND/OR OBSTRUCTIONS TO VISIBILITY.

...SOUTH CENTRAL NEBRASKA...

CITY           SKY/WX    TMP DP  RH WIND       PRES   REMARKS
GRAND ISLAND   CLEAR      8   0  69 NW16      30.58R WCI -10
HASTINGS       CLEAR      9  -1  64 NW17G25   30.58R WCI  -9
KEARNEY        CLEAR      9  -4  56 NW12      30.58R WCI  -6
ORD            CLEAR      7  -3  64 NW18      30.56R WCI -12
YORK           CLEAR      9   1  72 NW23      30.56R WCI -12
AURORA         CLEAR      9   1  68 NW17G26   30.57R WCI  -9
LEXINGTON      CLEAR      4  -2  74 NW12      30.58R WCI -12
HOLDREGE       CLEAR      7  -2  69 NW13G20   30.58R WCI -10
HEBRON         CLEAR     10   3  72 NW7       30.61R WCI   0

...NEBRASKA PANHANDLE...

CITY           SKY/WX    TMP DP  RH WIND       PRES   REMARKS
CHADRON        CLEAR     -2  -9  72 SW6       30.57R WCI -14
ALLIANCE       CLOUDY   -14 -19  79 W9        30.50R WCI -33
SCOTTSBLUFF    CLOUDY    -9 -15  75 NW9       30.52R WCI -26
SIDNEY         CLOUDY    -8 -14  74 W12       30.48R WCI -27

...WESTERN AND NORTH CENTRAL NEBRASKA...

CITY           SKY/WX    TMP DP  RH WIND       PRES   REMARKS
VALENTINE      CLEAR      4  -5  66 NW12      30.58R WCI -12
AINSWORTH      CLEAR      5  -2  73 NW16      30.56R WCI -14
ONEILL         MOCLDY     7   1  74 NW15G22   30.56R WCI -10
BROKEN BOW     CLEAR      6  -2  69 NW21G29   30.55R WCI -14
IMPERIAL       CLOUDY    -3 -10  72 NW10      30.55R WCI -20
NORTH PLATTE   CLEAR     -1  -6  79 W7        30.59R WCI -14
MCCOOK         CLEAR     -5  -9  83 SW5       30.61R WCI -16

...EASTERN NEBRASKA...

CITY           SKY/WX    TMP DP  RH WIND       PRES   REMARKS
NORFOLK        CLEAR      7   0  73 NW15      30.54R WCI -10
SO SIOUX CITY  CLEAR     11   2  67 NW20G26   30.52R WCI  -7
TEKAMAH        CLEAR     11   3  70 NW21G29   30.54R WCI  -8
COLUMBUS       CLEAR      9   0  66 W17G23    30.56R WCI -10
ALBION         CLEAR      7  -1  70 NW15      30.56R WCI -10
OMAHA EPPLEY   PTCLDY    11   2  67 NW21      30.55R WCI  -8
OFFUTT AFB     CLEAR     11   3  70 NW12      30.55R WCI  -3
MILLARD        CLEAR     12   3  66 NW14G20   30.56R WCI  -3
LINCOLN        CLEAR     11   2  67 NW12G22   30.59R WCI  -3
NEBRASKA CITY  CLEAR     11   1  61 NW14      30.55R WCI  -4
BEATRICE       CLEAR     11   3  69 NW10      30.59R WCI  -2
FALLS CITY     CLEAR     13   5  70 NW12      30.57R WCI  -1

...NORTHERN KANSAS...

CITY           SKY/WX    TMP DP  RH WIND       PRES   REMARKS
GOODLAND       CLOUDY    -3 -10  72 W10       30.55R WCI -20
HILL CITY      CLEAR      2  -4  76 W12       30.65R WCI -15
NORTON         SUNNY      0  -8  71 W9        30.61  WCI -16
PHILLIPSBURG   CLEAR      5  -2  72 W10       30.65R WCI -10
SMITH CENTER   CLEAR      1   3 100 W10       30.63S WCI -14
BELOIT         CLEAR      7   1  78 W7        30.65R WCI  -5
HAYS           CLEAR      8   0  69 NW10      30.65R WCI  -6
RUSSELL        CLEAR      7   1  76 NW9       30.63R WCI  -7
CONCORDIA      CLEAR      8   3  80 W12       30.61R WCI  -7
SALINA         CLEAR     13   5  70 NW9       30.66R WCI   1
TOPEKA         CLEAR     15   5  64 W10       30.60R WCI   2



USA.gov is the U.S. government's official web portal to all federal, state and local government web resources and services.